EW6237 Weather Reports


time (UTC)temp
F
wind
direction
speed
knots
gust
knots
rain 1hr
in
rain 24hr
in
rain mn
in
humidity
%
barometer
mb
20260509013054 62 202 0.0 0.0 0.00 0.00 0.00 51 1009.3
20260509011550 63 202 0.0 0.9 0.00 0.00 0.00 51 1009.4
20260509010054 63 202 0.0 0.9 0.00 0.00 0.00 50 1009.4
20260509004549 64 201 0.0 0.9 0.00 0.00 0.00 49 1009.2
20260509003050 65 202 0.0 0.9 0.00 0.00 0.00 48 1009.2
20260509001547 65 202 0.0 0.9 0.00 0.00 0.00 47 1009.2
20260509000047 66 202 0.0 1.7 0.00 0.00 0.00 46 1009.3
20260508234548 66 202 0.0 1.7 0.00 0.00 0.00 46 1009.3
20260508233046 67 202 0.0 2.6 0.00 0.00 0.00 44 1009.2
20260508231547 67 202 0.0 2.6 0.00 0.00 0.00 44 1009.4
20260508230056 67 202 0.9 2.6 0.00 0.00 0.00 43 1009.3
20260508224546 68 202 0.9 4.3 0.00 0.00 0.00 44 1009.3
20260508223043 68 202 0.0 2.6 0.00 0.00 0.00 43 1009.0
20260508221547 68 202 0.0 2.6 0.00 0.00 0.00 43 1009.1
20260508220041 69 202 0.9 4.3 0.00 0.00 0.00 42 1009.1
20260508214539 69 201 0.9 3.5 0.00 0.00 0.00 42 1009.3
20260508213038 69 202 0.0 3.5 0.00 0.00 0.00 43 1009.3
20260508211537 69 202 0.0 6.1 0.00 0.00 0.00 42 1009.4
20260508210035 69 202 0.9 4.3 0.00 0.00 0.00 41 1009.8
20260508204534 70 202 1.7 2.6 0.00 0.00 0.00 43 1009.9
20260508203030 70 202 1.7 4.3 0.00 0.00 0.00 42 1010.2
20260508201531 70 202 0.9 5.2 0.00 0.00 0.00 42 1010.3
20260508200036 70 202 1.7 4.3 0.00 0.00 0.00 40 1010.8
20260508194526 70 201 1.7 3.5 0.00 0.00 0.00 39 1011.0
20260508193025 71 201 0.9 4.3 0.00 0.00 0.00 40 1011.0
20260508191526 71 202 0.9 5.2 0.00 0.00 0.00 42 1010.9
20260508190022 72 202 1.7 3.5 0.00 0.00 0.00 38 1011.0
20260508184523 72 202 0.9 5.2 0.00 0.00 0.00 40 1011.3
20260508183017 71 202 1.7 3.5 0.00 0.00 0.00 40 1011.5
20260508181516 70 202 0.9 4.3 0.00 0.00 0.00 39 1011.8
20260508180011 69 202 0.9 4.3 0.00 0.00 0.00 41 1012.2
20260508174510 69 202 0.9 3.5 0.00 0.00 0.00 40 1012.4
20260508173005 69 201 1.7 4.3 0.00 0.00 0.00 44 1012.6
20260508171503 68 201 0.9 4.3 0.00 0.00 0.00 41 1013.0
20260508164558 68 202 0.9 5.2 0.00 0.00 0.00 45 1013.7
20260508163054 68 202 0.0 3.5 0.00 0.00 0.00 48 1014.0
20260508161552 67 202 0.0 3.5 0.00 0.00 0.00 51 1014.1
20260508160054 66 201 0.9 3.5 0.00 0.00 0.00 47 1014.3
20260508154550 66 202 0.9 3.5 0.00 0.00 0.00 48 1014.6
20260508153047 65 202 0.9 3.5 0.00 0.00 0.00 48 1014.8
20260508151544 64 202 1.7 3.5 0.00 0.00 0.00 50 1014.8
20260508150043 63 201 0.9 5.2 0.00 0.00 0.00 49 1015.0
20260508144539 62 202 0.9 3.5 0.00 0.00 0.00 51 1015.2
20260508143036 63 202 0.9 3.5 0.00 0.00 0.00 50 1015.1
20260508141533 61 202 0.9 5.2 0.00 0.00 0.00 51 1015.1
20260508140031 62 202 0.0 3.5 0.00 0.00 0.00 51 1015.2
20260508134527 61 202 0.9 3.5 0.00 0.00 0.00 52 1015.4
20260508133028 60 201 0.9 2.6 0.00 0.00 0.00 51 1015.3
20260508131521 59 202 0.0 1.7 0.00 0.00 0.00 54 1015.3
20260508130017 58 202 0.0 0.9 0.00 0.00 0.00 55 1015.3
20260508124514 56 202 0.0 0.9 0.00 0.00 0.00 58 1015.2
20260508123009 55 202 0.0 1.7 0.00 0.00 0.00 58 1015.2
20260508121505 55 202 0.0 0.9 0.00 0.00 0.00 59 1015.2
20260508120002 54 202 0.0 0.9 0.00 0.00 0.00 62 1015.1
20260508114558 52 202 0.0 0.9 0.00 0.00 0.00 63 1015.0
20260508113053 49 202 0.0 0.0 0.00 0.00 0.00 69 1014.9
20260508111548 46 202 0.0 0.9 0.00 0.00 0.00 74 1014.8
20260508110049 44 201 0.0 0.0 0.00 0.00 0.00 75 1014.8
20260508104615 44 201 0.0 0.0 0.00 0.00 0.00 75 1014.7
20260508103048 44 201 0.0 0.0 0.00 0.00 0.00 75 1014.6
20260508101549 44 201 0.0 0.0 0.00 0.00 0.00 75 1014.7
20260508100047 44 202 0.0 0.0 0.00 0.00 0.00 76 1014.6
20260508094547 44 202 0.0 0.0 0.00 0.00 0.00 75 1014.7
20260508093044 44 202 0.0 0.0 0.00 0.00 0.00 75 1014.6
20260508091542 44 202 0.0 0.0 0.00 0.00 0.00 75 1014.5
20260508090054 44 202 0.0 0.0 0.00 0.00 0.00 75 1014.4
20260508084541 43 202 0.0 0.0 0.00 0.00 0.00 76 1014.5
20260508083056 44 201 0.0 0.0 0.00 0.00 0.00 75 1014.5
20260508081552 44 202 0.0 0.0 0.00 0.00 0.00 73 1014.3
20260508080044 44 202 0.0 0.0 0.00 0.00 0.00 73 1014.3
20260508074536 44 202 0.0 0.0 0.00 0.00 0.00 72 1014.3
20260508073034 44 201 0.0 0.0 0.00 0.00 0.00 73 1014.4
20260508071533 44 201 0.0 0.0 0.00 0.00 0.00 74 1014.6
20260508070050 45 201 0.0 0.0 0.00 0.00 0.00 73 1014.7
20260508064533 45 201 0.0 0.0 0.00 0.00 0.00 74 1014.8
20260508063028 45 201 0.0 0.0 0.00 0.00 0.00 72 1014.9
20260508061526 45 202 0.0 0.0 0.00 0.00 0.00 72 1015.0
20260508060022 45 202 0.0 0.9 0.00 0.00 0.00 74 1015.1
20260508054520 43 202 0.0 0.9 0.00 0.00 0.00 81 1015.2
20260508053018 41 201 0.0 0.0 0.00 0.00 0.00 89 1015.2
20260508051515 41 202 0.0 0.0 0.00 0.00 0.00 87 1015.2
20260508050012 42 202 0.0 0.0 0.00 0.00 0.00 86 1015.1
20260508044510 43 202 0.0 0.0 0.00 0.00 0.00 85 1015.1
20260508043008 43 202 0.0 0.0 0.00 0.00 0.00 83 1015.1
20260508041507 43 201 0.0 0.0 0.00 0.00 0.00 81 1015.1
20260508040017 43 202 0.0 0.0 0.00 0.00 0.00 80 1015.1
20260508034510 44 202 0.0 0.0 0.00 0.00 0.00 76 1015.1
20260508033002 45 201 0.0 0.0 0.00 0.00 0.00 76 1015.2
20260508031504 45 202 0.0 0.0 0.00 0.00 0.00 71 1015.1
20260508030104 45 202 0.0 0.0 0.00 0.00 0.00 72 1015.1
20260508024602 45 201 0.0 0.0 0.00 0.00 0.00 68 1015.0
20260508023059 45 202 0.0 0.0 0.00 0.00 0.00 67 1015.0
20260508021559 45 202 0.0 0.0 0.00 0.00 0.00 68 1015.0
20260508020058 46 201 0.0 0.0 0.00 0.00 0.00 69 1015.0
20260508014557 46 201 0.0 0.0 0.00 0.00 0.00 65 1014.8